Location: Laterina
(43.5167°N, 11.7167°E)
Time: 12:54:09
(UTC+00:00)

Cosmos 2026 Rocket - Pass Details

Date: 22 January 2021
Orbit: 940 x 1000 km, 82.9° (Epoch: 28 February)

Event Time Altitude Azimuth Distance (km) Brightness Sun altitude
Rises 03:18:38 0° 10° (N) 3,709 7.2 -36.0°
Reaches altitude 10° 03:24:04 10° 49° (NE) 2,767 6.9 -35.1°
Maximum altitude 03:25:15 11° 59° (ENE) 2,730 7.0 -34.9°
Drops below altitude 10° 03:26:26 10° 70° (ENE) 2,768 7.1 -34.6°
Sets 03:31:51 0° 109° (ESE) 3,716 7.9 -33.7°
